Location: Kergonan
(48.2337°N, 4.5518°W)
Time: 15:59:28
(UTC+00:00)

SL-4 R/B - Pass Details

Date: 18 January 2020
Orbit: 428 x 666 km, 51.6° (Epoch: 18 February)

Event Time Altitude Azimuth Distance (km) Brightness Sun altitude
Exits shadow 06:27:02 34° 287° (WNW) 773 2.2 -15.5°
Maximum altitude 06:28:28 80° 206° (SSW) 458 1.5 -15.2°
Drops below altitude 10° 06:31:54 10° 118° (ESE) 1,537 5.6 -14.7°
Sets 06:33:58 0° 117° (ESE) 2,391 7.0 -14.3°
